Vorticity
nan nan nan nan nan nan nan nan nan nan nan nan nan nan nan nan nan nan nan nan nan nan nan nan nan nan nan nan nan nan nan nan
nan 10 10 9 7 10 11 9 8 7 9 9 7 11 9 3 6 9 13 9 5 2 2 7 7 7 7 6 6 6 6 nan
nan 7 6 8 9 9 10 10 10 9 11 13 10 7 10 12 10 7 6 3 7 12 9 5 4 5 8 8 5 3 8 nan
nan 4 7 8 5 5 6 8 8 9 9 11 13 10 11 13 16 14 8 8 9 9 8 9 6 6 11 6 4 7 9 nan
nan 8 6 8 9 8 8 6 5 3 3 9 11 11 11 11 12 12 16 16 10 12 12 8 4 7 6 7 6 6 7 nan
nan 8 7 8 9 7 7 7 8 6 3 7 11 9 6 9 8 7 11 10 14 16 9 7 9 7 7 6 8 5 3 nan
nan 6 7 7 9 8 7 7 6 6 6 6 9 8 8 7 7 9 8 7 7 13 15 13 10 10 8 9 6 6 4 nan
nan 5 7 7 7 8 8 7 6 8 6 4 7 10 8 8 8 8 7 6 5 7 7 12 17 13 9 11 8 6 7 nan
nan 6 7 6 8 9 8 7 8 7 6 5 7 8 8 9 10 8 7 4 8 9 8 8 10 15 16 9 13 11 7 nan
nan 6 6 8 10 10 8 6 8 7 7 6 4 7 9 12 10 8 8 9 10 9 8 9 9 8 12 16 13 10 8 nan
nan 7 7 9 9 9 8 7 9 8 7 5 4 8 8 11 10 7 9 11 9 8 8 9 9 8 9 8 11 15 12 nan
nan 7 7 12 10 9 9 8 8 8 7 4 7 8 8 11 11 7 9 10 8 9 10 9 10 8 10 12 11 10 12 nan
nan 8 9 12 9 9 8 8 8 9 6 4 9 8 9 13 10 9 9 9 8 9 9 11 11 11 12 11 9 12 14 nan
nan 8 11 12 10 9 8 9 9 8 7 6 7 8 10 9 8 9 11 10 10 10 11 12 10 11 10 11 12 15 20 nan
nan 9 9 8 11 12 10 10 9 7 7 7 6 8 9 9 11 11 11 11 9 9 9 12 12 9 11 13 11 8 13 nan
nan 9 8 7 9 10 11 12 9 9 8 7 7 7 9 9 10 12 13 10 8 10 10 10 11 11 14 8 5 13 6 nan
nan 6 8 9 9 11 11 10 11 9 7 8 9 8 8 10 10 11 12 9 6 9 10 12 13 11 9 9 11 14 13 nan
nan 8 9 8 9 9 9 9 12 10 10 11 10 9 6 6 9 11 10 11 11 10 9 10 12 12 10 11 12 10 12 nan
nan 9 8 9 10 9 8 9 10 10 11 9 10 11 7 6 9 10 10 9 10 11 10 11 10 11 12 12 11 10 11 nan
nan nan nan nan nan nan nan nan nan nan nan nan nan nan nan nan nan nan nan nan nan nan nan nan nan nan nan nan nan nan nan nan
CAPE
354 286 453 429 302 371 550 679 603 538 627 749 852 846 912 1234 1549 1754 1750 1561 1466 1395 1295 1194 1176 1177 1053 557 241 182 253 407
0 218 426 520 533 103 445 729 671 720 880 860 726 733 809 917 1006 1106 1458 1580 1543 1447 1230 1053 1015 980 960 888 523 275 178 51
0 0 0 0 0 2 94 253 436 567 756 841 958 1407 1579 1638 1496 962 1157 1246 1176 1253 1155 1003 897 811 808 763 647 618 276 127
0 0 0 0 0 0 0 0 0 0 29 140 544 1152 1114 1172 1060 1002 1102 1059 1055 1045 1039 946 760 832 795 655 869 423 267 210
0 0 0 0 0 0 0 0 0 0 0 0 0 35 358 634 1103 1414 1780 1318 1029 810 1009 1421 1375 1342 1148 954 827 630 462 235
0 0 0 0 0 0 0 0 0 0 0 0 0 0 0 1 68 339 835 895 1461 1242 931 1060 1195 1284 1655 1449 1188 1071 779 545
0 0 0 0 0 0 0 0 0 0 0 0 0 0 0 0 0 0 21 73 53 270 1336 1281 1041 1172 1203 835 992 1149 1293 992
0 0 0 0 0 0 0 0 0 0 0 0 0 0 0 0 0 0 0 17 11 7 8 91 1137 1193 1315 1142 1038 1001 1031 1132
0 0 0 0 0 0 0 0 0 0 0 0 0 0 2 5 0 0 0 1 0 0 9 8 1 620 898 859 922 1091 871 948
0 0 0 0 0 0 0 0 0 0 0 0 0 3 5 4 1 3 19 12 2 1 3 20 12 4 13 686 916 833 760 702
0 0 0 0 0 0 0 0 0 0 0 0 2 4 12 17 13 16 28 15 11 13 19 33 43 16 12 7 114 915 629 542
0 0 1 0 0 0 0 3 3 8 5 2 8 8 14 15 9 18 13 24 29 32 51 36 56 35 27 14 12 4 475 1018
5 10 16 8 2 5 2 3 3 5 7 7 11 13 15 16 17 22 27 17 21 28 19 22 16 9 27 23 17 15 279 519
16 24 17 8 1 1 1 0 0 3 4 8 13 16 14 20 22 19 18 25 21 23 29 27 21 40 25 16 11 1 174 884
23 13 17 13 8 1 0 0 0 0 1 4 9 15 19 21 11 21 20 31 24 24 29 24 24 18 25 33 33 41 35 534
19 9 6 8 13 8 8 6 8 10 10 10 11 12 8 10 16 22 26 34 26 21 22 18 25 20 21 20 10 19 8 42
6 6 13 11 7 10 11 8 9 11 10 13 14 14 7 6 15 7 33 28 22 9 23 21 23 22 23 17 12 16 12 15
28 20 12 8 7 10 11 11 11 13 13 12 14 12 9 11 10 18 22 23 27 31 28 29 30 27 24 21 17 22 18 19
10 15 10 10 8 8 5 12 13 9 10 9 9 15 26 32 40 42 40 36 24 34 44 30 43 32 28 22 20 15 21 21
5 10 7 9 8 11 7 10 8 7 6 10 8 22 40 36 39 55 46 41 34 45 43 46 38 40 22 14 15 16 12 22